Weather History for Muscatine, IA

Change the Weather History Date:

Sunday, November 25, 2012

  Actual Average Record
Temperature  
Mean Temperature 37 °F -  
Max Temperature 44 °F 45 °F 62 °F (1998)
Min Temperature 30 °F 27 °F 4 °F (1950)
Degree Days  
Heating Degree Days 28    
Moisture  
Dew Point 23 °F    
Average Humidity 57    
Maximum Humidity 70    
Minimum Humidity 42    
Precipitation  
Precipitation 0.00 in - - ()
Sea Level Pressure  
Sea Level Pressure 29.96 in    
Wind  
Wind Speed 5 mph (NW)    
Max Wind Speed 12 mph    
Max Gust Speed 16 mph    
Visibility 10 miles    
Events      
Averages and records for this station are not official NWS values.
T = Trace of Precipitation, MM = Missing Value Source: NWS Daily Summary

Daily Weather History Graph

Daily Weather History Graph

Search for Another Location

Airport:

Trip Planner

Search our weather history database for the weather conditions in past years. The results will help you decide how hot, cold, wet, or windy it might be!

Date:

Astronomy

Nov. 25, 2012 Rise Set
Actual Time 7:05 AM CST 4:37 PM CST
Civil Twilight 6:34 AM CST 5:08 PM CST
Nautical Twilight 6:00 AM CST 5:42 PM CST
Astronomical Twilight 5:27 AM CST 6:15 PM CST
Moon 2:56 PM CST (11/25) 4:18 AM CST (11/25)
Length of Visible Light 10h 33m
Length of Day
9h 32m
Waxing Gibbous, 93% of the Moon is Illuminated
Nov 25
Waxing Gibbous
Nov 28
Full
Dec 6
Last Quarter
Dec 13
New
Dec 19
First Quarter

Hourly Weather History & Observations

Time (CST) Temp. Windchill Dew Point Humidity Pressure Visibility Wind Dir Wind Speed Gust Speed Precip Events Conditions
12:15 AM 33.8 °F 27.7 °F 21.2 °F 60% 29.91 in 10.0 mi SSE 6.9 mph - N/A   Clear
12:35 AM 33.8 °F 27.7 °F 21.2 °F 60% 29.89 in 10.0 mi SSE 6.9 mph - N/A   Scattered Clouds
12:55 AM 33.8 °F 28.6 °F 21.2 °F 60% 29.89 in 10.0 mi South 5.8 mph - N/A   Scattered Clouds
1:15 AM 33.8 °F 28.6 °F 21.2 °F 60% 29.88 in 10.0 mi South 5.8 mph - N/A   Scattered Clouds
1:35 AM 33.8 °F 27.0 °F 21.2 °F 60% 29.87 in 10.0 mi South 8.1 mph - N/A   Scattered Clouds
1:55 AM 33.8 °F 27.0 °F 21.2 °F 60% 29.86 in 10.0 mi South 8.1 mph - N/A   Clear
2:15 AM 33.8 °F 27.7 °F 21.2 °F 60% 29.87 in 10.0 mi South 6.9 mph - N/A   Clear
2:35 AM 33.8 °F 29.6 °F 21.2 °F 60% 29.87 in 10.0 mi South 4.6 mph - N/A   Scattered Clouds
2:55 AM 33.8 °F - 21.2 °F 60% 29.87 in 10.0 mi Calm Calm - N/A   Scattered Clouds
3:15 AM 33.8 °F 30.8 °F 21.2 °F 60% 29.86 in 10.0 mi South 3.5 mph - N/A   Clear
3:35 AM 33.8 °F 29.6 °F 21.2 °F 60% 29.86 in 10.0 mi SSW 4.6 mph - N/A   Clear
3:55 AM 35.6 °F 32.8 °F 21.2 °F 56% 29.87 in 10.0 mi SW 3.5 mph - N/A   Clear
4:15 AM 35.6 °F - 21.2 °F 56% 29.86 in 10.0 mi Calm Calm - N/A   Clear
4:35 AM 33.8 °F - 21.2 °F 60% 29.85 in 10.0 mi Calm Calm - N/A   Clear
4:55 AM 33.8 °F - 21.2 °F 60% 29.86 in 10.0 mi Calm Calm - N/A   Clear
5:15 AM 33.8 °F 30.8 °F 21.2 °F 60% 29.86 in 10.0 mi WSW 3.5 mph - N/A   Clear
5:35 AM 32.0 °F - 21.2 °F 64% 29.86 in 10.0 mi Calm Calm - N/A   Clear
6:15 AM 30.2 °F 23.4 °F 21.2 °F 69% 29.88 in 10.0 mi West 6.9 mph - N/A   Clear
6:35 AM 30.2 °F - 21.2 °F 69% 29.88 in 10.0 mi Calm Calm - N/A   Clear
6:55 AM 30.2 °F - 21.2 °F 69% 29.88 in 10.0 mi Calm Calm - N/A   Clear
7:15 AM 32.0 °F - 21.2 °F 64% 29.88 in 10.0 mi Calm Calm - N/A   Clear
7:35 AM 30.2 °F - 21.2 °F 69% 29.89 in 10.0 mi Calm Calm - N/A   Clear
7:55 AM 33.8 °F 25.8 °F 23.0 °F 65% 29.90 in 10.0 mi NW 10.4 mph - N/A   Clear
8:15 AM 35.6 °F 28.6 °F 23.0 °F 60% 29.90 in 10.0 mi NW 9.2 mph - N/A   Clear
8:35 AM 35.6 °F 28.0 °F 23.0 °F 60% 29.91 in 10.0 mi NW 10.4 mph - N/A   Clear
8:55 AM 35.6 °F 29.2 °F 23.0 °F 60% 29.91 in 10.0 mi NW 8.1 mph - N/A   Clear
9:15 AM 35.6 °F 28.0 °F 23.0 °F 60% 29.93 in 10.0 mi NW 10.4 mph 16.1 mph N/A   Clear
9:35 AM 37.4 °F 31.4 °F 23.0 °F 56% 29.94 in 10.0 mi NNW 8.1 mph - N/A   Clear
9:55 AM 37.4 °F 29.8 °F 21.2 °F 52% 29.95 in 10.0 mi NNW 11.5 mph - N/A   Clear
10:15 AM 39.2 °F 33.6 °F 21.2 °F 49% 29.95 in 10.0 mi NNW 8.1 mph - N/A   Clear
10:35 AM 39.2 °F 35.0 °F 21.2 °F 49% 29.95 in 10.0 mi North 5.8 mph - N/A   Clear
10:55 AM 42.8 °F 38.6 °F 21.2 °F 42% 29.95 in 10.0 mi NNW 6.9 mph - N/A   Clear
11:15 AM 41.0 °F 37.1 °F 21.2 °F 45% 29.94 in 10.0 mi NNW 5.8 mph - N/A   Clear
11:35 AM 41.0 °F 35.2 °F 21.2 °F 45% 29.94 in 10.0 mi NNW 9.2 mph - N/A   Clear
11:55 AM 41.0 °F 35.8 °F 21.2 °F 45% 29.94 in 10.0 mi NW 8.1 mph - N/A   Clear
12:15 PM 42.8 °F 37.5 °F 21.2 °F 42% 29.94 in 10.0 mi NW 9.2 mph - N/A   Clear
12:35 PM 42.8 °F 38.0 °F 21.2 °F 42% 29.94 in 10.0 mi NW 8.1 mph - N/A   Clear
12:55 PM 42.8 °F 38.0 °F 21.2 °F 42% 29.94 in 10.0 mi NW 8.1 mph - N/A   Clear
1:15 PM 42.8 °F 38.0 °F 21.2 °F 42% 29.94 in 10.0 mi NW 8.1 mph - N/A   Clear
1:35 PM 42.8 °F 39.3 °F 21.2 °F 42% 29.93 in 10.0 mi NW 5.8 mph - N/A   Clear
1:55 PM 42.8 °F 38.6 °F 23.0 °F 46% 29.94 in 10.0 mi WNW 6.9 mph - N/A   Clear
2:15 PM 44.6 °F 40.2 °F 24.8 °F 46% 29.94 in 10.0 mi WNW 8.1 mph - N/A   Clear
2:35 PM 42.8 °F 37.5 °F 24.8 °F 49% 29.94 in 10.0 mi NNW 9.2 mph - N/A   Clear
2:55 PM 42.8 °F 37.5 °F 23.0 °F 46% 29.95 in 10.0 mi NW 9.2 mph - N/A   Clear
3:15 PM 42.8 °F 38.0 °F 24.8 °F 49% 29.96 in 10.0 mi NNW 8.1 mph - N/A   Clear
3:35 PM 42.8 °F 36.6 °F 24.8 °F 49% 29.98 in 10.0 mi NW 11.5 mph - N/A   Scattered Clouds
3:55 PM 41.0 °F 35.8 °F 24.8 °F 53% 29.97 in 10.0 mi NW 8.1 mph - N/A   Overcast
4:15 PM 39.2 °F 33.6 °F 24.8 °F 56% 29.98 in 10.0 mi NW 8.1 mph - N/A   Scattered Clouds
4:35 PM 39.2 °F 35.9 °F 24.8 °F 56% 29.98 in 10.0 mi NW 4.6 mph - N/A   Scattered Clouds
4:55 PM 39.2 °F 35.9 °F 24.8 °F 56% 29.99 in 10.0 mi WNW 4.6 mph - N/A   Scattered Clouds
5:15 PM 39.2 °F 37.0 °F 24.8 °F 56% 30.00 in 10.0 mi West 3.5 mph - N/A   Scattered Clouds
5:35 PM 39.2 °F 35.9 °F 24.8 °F 56% 30.01 in 10.0 mi WNW 4.6 mph - N/A   Scattered Clouds
5:55 PM 39.2 °F 34.2 °F 24.8 °F 56% 30.01 in 10.0 mi NW 6.9 mph - N/A   Mostly Cloudy
6:15 PM 39.2 °F 35.0 °F 24.8 °F 56% 30.02 in 10.0 mi NW 5.8 mph - N/A   Overcast
6:35 PM 37.4 °F 32.1 °F 24.8 °F 60% 30.03 in 10.0 mi NNW 6.9 mph - N/A   Overcast
6:55 PM 37.4 °F 32.1 °F 24.8 °F 60% 30.03 in 10.0 mi NNW 6.9 mph - N/A   Mostly Cloudy
7:15 PM 37.4 °F 31.4 °F 24.8 °F 60% 30.04 in 10.0 mi NNW 8.1 mph - N/A   Overcast
7:35 PM 37.4 °F 32.1 °F 24.8 °F 60% 30.04 in 10.0 mi North 6.9 mph - N/A   Overcast
7:55 PM 37.4 °F 34.9 °F 24.8 °F 60% 30.05 in 10.0 mi NNW 3.5 mph - N/A   Overcast
8:15 PM 37.4 °F - 24.8 °F 60% 30.06 in 10.0 mi Calm Calm - N/A   Overcast
8:35 PM 37.4 °F - 24.8 °F 60% 30.06 in 10.0 mi Calm Calm - N/A   Overcast
8:55 PM 37.4 °F - 24.8 °F 60% 30.06 in 10.0 mi Calm Calm - N/A   Overcast
9:15 PM 35.6 °F - 24.8 °F 65% 30.07 in 10.0 mi Calm Calm - N/A   Mostly Cloudy
9:35 PM 35.6 °F - 24.8 °F 65% 30.08 in 10.0 mi Calm Calm - N/A   Mostly Cloudy
9:55 PM 35.6 °F - 24.8 °F 65% 30.09 in 10.0 mi Calm Calm - N/A   Mostly Cloudy
10:15 PM 35.6 °F 32.8 °F 24.8 °F 65% 30.09 in 10.0 mi NNW 3.5 mph - N/A   Overcast
10:35 PM 37.4 °F - 24.8 °F 60% 30.09 in 10.0 mi Calm Calm - N/A   Mostly Cloudy
10:55 PM 37.4 °F - 24.8 °F 60% 30.10 in 10.0 mi Calm Calm - N/A   Mostly Cloudy
11:15 PM 35.6 °F - 24.8 °F 65% 30.10 in 10.0 mi Calm Calm - N/A   Mostly Cloudy
11:35 PM 35.6 °F 32.8 °F 24.8 °F 65% 30.11 in 10.0 mi North 3.5 mph - N/A   Mostly Cloudy
11:55 PM 33.8 °F 28.6 °F 24.8 °F 70% 30.12 in 10.0 mi NNW 5.8 mph - N/A   Scattered Clouds